Location: Weatherford
(35.5260°N, 98.7070°W)
Time: 23:18:57
(UTC-05:00)

OPAL - Visible Passes

Search period start: 30 April 2017 00:00
Search period end: 10 May 2017 00:00
Orbit: 743 x 796 km, 100.2° (Epoch: 29 April)

Date Brightness Start Highest point End Pass type
(mag) Time Alt. Az. Time Alt. Az. Time Alt. Az.
30 Apr 9.7 06:15:40 10° NE 06:19:55 27° E 06:24:09 10° SSE visible
01 May 10.6 05:42:41 10° ENE 05:44:09 11° E 05:45:37 10° ESE visible
03 May 10.1 06:08:29 10° NE 06:12:19 22° E 06:16:10 10° SSE visible
06 May 10.2 06:01:26 10° NE 06:04:44 17° E 06:08:01 10° SE visible
09 May 10.4 05:54:38 10° ENE 05:57:07 14° E 05:59:37 10° SE visible
